Location: Northcutt
(34.7304°N, 84.4305°W)
Time: 05:10:17
(UTC+00:00)

Vanguard 2 - Pass Details

Date: 11 October 2022
Orbit: 553 x 2933 km, 32.9° (Epoch: 05 December)

Event Time Altitude Azimuth Distance (km) Brightness Sun altitude
Rises 19:05:04 0° 274° (W) 4,328 11.7 41.8°
Reaches altitude 10° 19:07:30 10° 273° (W) 3,610 11.4 41.5°
Maximum altitude 19:17:24 78° 189° (S) 2,116 10.7 40.3°
Drops below altitude 10° 19:33:24 10° 107° (ESE) 5,543 11.8 38.1°
Sets 19:38:08 0° 106° (ESE) 6,705 12.1 37.5°
